EW4337 Weather Reports


Display with metric or nautical units.
time (UTC)temp
F
wind
direction
speed
MPH
gust
MPH
rain 1hr
in
rain 24hr
in
rain mn
in
humidity
%
barometer
mb
20190124021704 24 110 0.0 3.0 0.00 0.00 0.00 89 1009.2
20190124020704 24 150 0.0 3.0 0.00 0.00 0.00 89 1009.2
20190124015703 25 141 0.0 0.0 0.00 0.00 0.00 89 1009.2
20190124014704 25 161 0.0 0.0 0.00 0.00 0.00 90 1009.1
20190124013704 25 162 0.0 2.0 0.00 0.00 0.00 90 1009.1
20190124012703 25 143 0.0 0.0 0.00 0.00 0.00 90 1009.0
20190124011703 25 80 1.0 3.0 0.00 0.00 0.00 90 1008.9
20190124010704 25 81 0.0 2.0 0.00 0.00 0.00 90 1008.9
20190124005704 25 102 0.0 0.0 0.00 0.00 0.00 91 1008.8
20190124004703 25 102 0.0 0.0 0.00 0.00 0.00 91 1008.7
20190124003704 25 102 0.0 0.0 0.00 0.00 0.00 91 1008.6
20190124002704 25 102 0.0 0.0 0.00 0.00 0.00 91 1008.5
20190124001704 25 40 0.0 0.0 0.00 0.00 0.00 91 1008.4
20190124000707 25 33 0.0 0.0 0.00 0.00 0.00 91 1008.3
20190123235704 25 33 0.0 0.0 0.00 0.00 0.00 91 1008.3
20190123234704 25 32 0.0 0.0 0.00 0.01 0.00 91 1008.2
20190123233704 25 32 0.0 0.0 0.00 0.01 0.00 91 1008.1
20190123232704 25 32 0.0 0.0 0.00 0.01 0.00 91 1008.1
20190123231704 25 33 0.0 0.0 0.00 0.01 0.00 91 1008.0
20190123230704 25 32 0.0 0.0 0.00 0.01 0.00 91 1007.9
20190123225705 24 33 0.0 0.0 0.00 0.01 0.01 91 1007.7
20190123224704 25 32 0.0 2.0 0.00 0.01 0.01 91 1007.6
20190123223704 25 47 0.0 0.0 0.00 0.01 0.01 91 1007.5
20190123222704 25 42 0.0 2.0 0.00 0.01 0.01 91 1007.4
20190123221704 25 39 0.0 3.0 0.00 0.01 0.01 91 1007.3
20190123220704 25 51 0.0 3.0 0.00 0.01 0.01 91 1007.1
20190123215702 25 72 0.0 2.0 0.00 0.01 0.01 91 1007.0
20190123214703 25 52 0.0 3.0 0.00 0.01 0.01 90 1007.0
20190123213703 25 66 1.0 3.0 0.00 0.01 0.01 90 1007.0
20190123212703 26 66 0.0 3.0 0.00 0.01 0.01 91 1006.8
20190123211703 26 36 1.0 3.0 0.00 0.01 0.01 90 1006.7
20190123210703 26 56 0.0 3.0 0.00 0.01 0.01 91 1006.7
20190123205703 26 77 0.0 3.0 0.00 0.01 0.01 91 1006.6
20190123204703 26 52 0.0 3.0 0.00 0.01 0.01 91 1006.5
20190123203703 27 56 1.0 3.0 0.00 0.01 0.01 90 1006.4
20190123202703 27 65 1.0 3.0 0.00 0.01 0.01 90 1006.4
20190123201703 27 59 1.0 6.0 0.00 0.02 0.01 90 1006.3
20190123200703 27 60 1.0 3.0 0.00 0.02 0.01 90 1006.2
20190123195703 27 58 1.0 3.0 0.00 0.02 0.01 90 1006.1
20190123194703 28 43 0.0 3.0 0.00 0.02 0.01 90 1006.1
20190123193703 28 63 0.0 3.0 0.00 0.02 0.01 90 1005.9
20190123192703 28 60 2.0 3.0 0.00 0.03 0.01 90 1005.9
20190123191703 28 69 1.0 5.0 0.00 0.04 0.01 90 1005.9
20190123190703 28 69 1.0 5.0 0.00 0.05 0.01 90 1005.7
20190123185703 29 87 2.0 9.0 0.00 0.06 0.01 90 1005.6
20190123184703 29 65 1.0 3.0 0.00 0.09 0.01 91 1005.6
20190123183703 29 42 0.0 5.0 0.00 0.11 0.01 91 1005.5
20190123182707 29 54 1.0 3.0 0.00 0.12 0.01 91 1005.5
20190123181703 29 34 0.0 3.0 0.00 0.12 0.01 92 1005.5
20190123180704 29 42 1.0 5.0 0.00 0.12 0.01 92 1005.4
20190123175703 29 45 1.0 3.0 0.00 0.12 0.01 93 1005.3
20190123174704 29 52 1.0 3.0 0.00 0.12 0.01 92 1005.2
20190123173703 29 58 0.0 3.0 0.00 0.12 0.01 93 1005.2
20190123172704 29 41 0.0 1.0 0.00 0.12 0.01 93 1005.0
20190123171704 29 40 0.0 2.0 0.00 0.12 0.01 93 1005.0
20190123170703 29 17 0.0 0.0 0.00 0.12 0.01 93 1004.8
20190123165703 29 17 0.0 0.0 0.00 0.12 0.01 93 1004.7
20190123164704 29 7 0.0 3.0 0.00 0.12 0.01 93 1004.6
20190123163703 29 22 0.0 1.0 0.00 0.12 0.01 93 1004.5
20190123162703 29 21 0.0 3.0 0.00 0.12 0.01 93 1004.4
20190123161704 29 25 0.0 3.0 0.00 0.12 0.01 93 1004.3
20190123160703 29 28 1.0 3.0 0.00 0.12 0.01 93 1004.2
20190123155703 29 36 1.0 3.0 0.00 0.12 0.01 93 1004.0
20190123154703 29 43 1.0 3.0 0.00 0.12 0.01 93 1003.9
20190123153704 30 31 0.0 3.0 0.00 0.12 0.01 93 1003.8
20190123152704 30 33 1.0 3.0 0.00 0.12 0.01 94 1003.6
20190123151704 30 64 0.0 2.0 0.00 0.12 0.01 94 1003.5
20190123150703 30 39 0.0 3.0 0.00 0.12 0.01 94 1003.3
20190123145704 30 61 1.0 5.0 0.00 0.12 0.01 94 1003.1
20190123144704 30 39 1.0 3.0 0.00 0.12 0.01 94 1003.0
20190123143704 30 61 1.0 5.0 0.00 0.12 0.01 94 1002.9
20190123142703 30 49 1.0 6.0 0.00 0.12 0.01 94 1002.8
20190123141704 30 63 0.0 5.0 0.00 0.12 0.01 95 1002.8
20190123140704 30 64 2.0 6.0 0.00 0.12 0.01 95 1002.7
20190123135704 30 51 2.0 6.0 0.00 0.12 0.01 95 1002.7
20190123134703 30 49 2.0 5.0 0.00 0.12 0.01 95 1002.5
20190123133703 30 50 1.0 5.0 0.00 0.12 0.01 95 1002.4
20190123132704 30 77 1.0 3.0 0.00 0.12 0.01 95 1002.4
20190123131705 30 68 2.0 5.0 0.00 0.12 0.01 95 1002.3
20190123130704 30 66 0.0 3.0 0.00 0.12 0.01 96 1002.3
20190123125704 30 56 2.0 5.0 0.00 0.12 0.01 96 1002.3
20190123124705 30 87 1.0 3.0 0.00 0.12 0.01 96 1002.2
20190123123705 30 50 1.0 3.0 0.00 0.12 0.01 96 1002.2
20190123122704 30 58 2.0 5.0 0.00 0.12 0.01 96 1002.1
20190123121704 30 56 1.0 3.0 0.00 0.12 0.01 96 1002.2
20190123120704 30 62 1.0 3.0 0.00 0.12 0.01 96 1002.2
20190123115704 30 77 1.0 5.0 0.00 0.12 0.01 96 1002.1
20190123114704 30 104 1.0 5.0 0.00 0.12 0.01 96 1002.1
20190123113704 30 82 0.0 3.0 0.00 0.12 0.01 97 1002.0
20190123112704 30 61 1.0 3.0 0.00 0.12 0.01 97 1002.0
20190123111705 30 20 0.0 1.0 0.00 0.12 0.01 97 1001.9
20190123110704 30 17 0.0 0.0 0.00 0.12 0.01 97 1001.9
20190123105703 30 354 0.0 0.0 0.00 0.12 0.01 97 1001.9
20190123104704 29 44 0.0 0.0 0.00 0.12 0.01 97 1001.9
20190123103702 29 54 0.0 2.0 0.00 0.12 0.01 97 1001.8
20190123102703 29 55 0.0 3.0 0.00 0.12 0.01 97 1001.8
20190123101702 29 56 0.0 3.0 0.00 0.12 0.01 97 1001.7
20190123100702 30 65 0.0 3.0 0.00 0.12 0.01 97 1001.6
20190123095703 30 57 0.0 2.0 0.00 0.12 0.01 97 1001.6
20190123094702 30 138 0.0 0.0 0.00 0.12 0.01 97 1001.5
20190123093703 30 93 0.0 0.0 0.00 0.12 0.01 97 1001.4
20190123092703 30 93 0.0 1.0 0.00 0.12 0.01 97 1001.3
20190123091702 29 93 0.0 0.0 0.00 0.12 0.01 97 1001.2
20190123090702 29 87 0.0 0.0 0.00 0.12 0.01 97 1001.1
20190123085703 29 91 0.0 2.0 0.00 0.12 0.01 97 1001.1
20190123084702 29 87 0.0 1.0 0.00 0.12 0.01 97 1001.0
20190123083703 29 113 0.0 0.0 0.00 0.12 0.01 97 1000.9
20190123082703 29 99 0.0 0.0 0.00 0.12 0.01 97 1000.9
20190123081702 29 99 0.0 3.0 0.00 0.12 0.01 97 1000.8
20190123080702 29 99 0.0 2.0 0.00 0.12 0.01 97 1000.6
20190123075703 29 99 0.0 3.0 0.00 0.12 0.01 97 1000.6
20190123074703 29 104 1.0 3.0 0.00 0.12 0.01 97 1000.5
20190123073703 29 110 0.0 3.0 0.00 0.12 0.01 97 1000.4
20190123072703 29 127 0.0 2.0 0.00 0.12 0.01 97 1000.4
20190123071703 29 96 0.0 3.0 0.00 0.12 0.01 97 1000.3
20190123070703 29 117 0.0 3.0 0.00 0.12 0.01 97 1000.2
20190123065704 29 111 1.0 3.0 0.00 0.12 0.01 97 1000.1
20190123064704 29 114 0.0 2.0 0.00 0.12 0.01 97 1000.1
20190123063703 29 129 0.0 2.0 0.00 0.12 0.01 97 1000.0
20190123062703 29 96 0.0 2.0 0.00 0.12 0.01 97 999.9
20190123061703 29 121 0.0 3.0 0.00 0.12 0.01 96 999.8
20190123060703 29 113 0.0 2.0 0.00 0.12 0.01 96 999.8
20190123055703 29 97 1.0 2.0 0.00 0.12 0.01 97 999.8
20190123054703 29 128 0.0 0.0 0.00 0.12 0.01 96 999.7
20190123053704 29 118 0.0 0.0 0.00 0.12 0.01 96 999.7
20190123052703 29 118 0.0 0.0 0.00 0.12 0.01 96 999.7
20190123051703 29 119 0.0 0.0 0.00 0.12 0.01 96 999.6
20190123050703 29 134 0.0 0.0 0.00 0.12 0.01 96 999.5
20190123045703 29 152 0.0 0.0 0.00 0.12 0.01 96 999.5
20190123044704 29 152 0.0 0.0 0.00 0.12 0.01 96 999.5
20190123043703 29 146 0.0 0.0 0.00 0.12 0.01 96 999.5
20190123042703 29 146 0.0 5.0 0.00 0.12 0.01 96 999.6
20190123041703 29 115 0.0 0.0 0.00 0.12 0.01 96 999.5
20190123040703 29 169 0.0 6.0 0.00 0.12 0.01 96 999.4
20190123035703 29 142 1.0 5.0 0.00 0.12 0.01 96 999.3
20190123034703 29 151 4.0 7.0 0.00 0.12 0.01 96 999.2
20190123033706 29 172 2.0 5.0 0.00 0.12 0.01 96 999.2
20190123032703 29 124 3.0 7.0 0.00 0.12 0.01 96 999.1
20190123031705 29 126 1.0 8.0 0.00 0.12 0.01 96 999.0
20190123030704 29 139 3.0 7.0 0.00 0.12 0.01 96 999.1
20190123025704 29 128 0.0 6.0 0.00 0.12 0.01 96 999.1
20190123024703 29 132 0.0 5.0 0.00 0.12 0.01 96 999.3
20190123023704 29 150 0.0 0.0 0.00 0.12 0.01 96 999.4
20190123022704 29 183 0.0 0.0 0.00 0.12 0.01 96 999.5